Location: Pedimozza
(42.0500°N, 9.3500°E)
Time: 15:07:50
(UTC+00:00)

Terra - Pass Details

Date: 19 August 2019
Orbit: 701 x 703 km, 98.2° (Epoch: 19 September)

Event Time Altitude Azimuth Distance (km) Brightness Sun altitude
Exits shadow 21:29:43 58° 330° (NNW) 824 2.3 -29.1°
Drops below altitude 10° 21:33:34 10° 345° (NNW) 2,179 5.2 -29.5°
Sets 21:35:50 0° 346° (NNW) 3,101 6.2 -29.7°
